STARLINK-32464, 62140

Orbit data source: Space-Track

STARLINK-32464, 62140 is a payload satellite owned by SpaceX/Seattle (US) in LEO that was launched on Sat, 30 Nov 2024 UTC via an FALCON 9 launch vehicle from the Air Force Eastern Test Range (AFETR). Payload-class satellites include a variety of spacecraft equipped with specific instruments for various scientific and technological missions. These include communications satellites like Starlink; space stations such as the ISS; scientific satellites like the Hubble; Earth observation satellites from companies like Planet Labs, Umbra, and HawkEye 360; GPS; miniature CubeSats for education and research; and military/defense satellites.

Loading next visibility...
Identifier
62140, 2024-224B
Orbit
LEO
Country
Flag of USUS
Related business
Manufacturer
SpaceX/Seattle
Mission
Operational spacecraft
Bus & Motor
STARLINK V2M, Unknown motor
Mass
730 kg wet, ~700 kg dry
Launch date (UTC)
2024-11-30 (1 year ago)
Launch vehicle
FALCON 9
Launch site
Air Force Eastern Test Range (AFETR)
Object type
Payload
Rocket body
Debris
Shape & HBR
Unknown shape, 17.7 m
Radar Cross Section
Large (>1 m²)

Expand to show TLE details & history
Last TLE update: 17 hours ago

TLE from 17 hours ago
0 STARLINK-32464
1 62140U 24224B   25346.57730528  .00030308  00000-0  11066-2 0  9994
2 62140  42.9982 290.3963 0000999 302.5478  57.5277 15.27575063 59094
Epoch: 2025-12-12T13:51Z
TLE epoch observation values (Epoch: 2025-12-12T13:51:19.176Z)
Latitude
-0.00001°
Longitude
1.04946°
Altitude
482.471 km
Speed
7.626 km/s
True Right ascension
19h 21m 35s
True Declination
0° 00' 00"
Sunlit
Object was in daylight at epoch
Visualization orbit readout
Latitude
Unknown
Longitude
Unknown
Altitude
Unknown
Speed
Unknown
Apparent Right ascension
Unknown
Apparent Declination
Unknown
Sunlit
N/A
Visualization observer readout
Local Sidereal Time
05:24:08
Azimuth
Unknown
Elevation
Unknown
Doppler factor
Unknown
Orbital elements
Apogee altitude
485.695 km
Perigee altitude
484.324 km
Semi-major axis
6,863.146 km
Eccentricity
0.0001
Inclination
42.9982°
RAAN
290.3963°
Arg. of periapsis
302.5478°
True anomaly
57.53736°
Mean anomaly
57.5277°
Eccentric anomaly
57.53253°
Mean motion
3.81732 °/min
Orbital period
94.31 mins
BSTAR
0.0011066
Loading maneuver chart data...
Computing Atmospheric mass density...
Loading historical data...
Loading historical data...
Loading historical data...
Loading historical data...
Loading historical data...
Loading historical data...
Loading historical data...

Documentation

Showing up to 5 results
|